[[{"header":{"parameterUnit":"m.s-1","parameterCategory":1,"la1":30.2991,"la2":30.254,"lo1":-89.0895,"lo2":-89.0444,"dy":0.0017,"dx":0.0017,"nx":28,"ny":28,"refTime":"2025-11-22T09:00:00:Z","depth":0,"parameterNumber":2,"parameterNumberName":"U-component_of_WINDS"},"data":[0,0,0,0,0,0,0,0,0,0,0,0,0,0,0,0,0,0,0,0,0,0,0,0,0,0,0,0,0,0,0,0,0,0,0,0,0,0,0,0,0,0,0,0,0,0,0,0,0,0,0,0,0,0,0,0,0,0,0.7225,0.7226,0,0.7327,0.7328,0.733,0.7399,0.7399,0.74,0.74,0.7509,0.7512,0.7514,0,0,0,0,0,0,0,0,0,0,0,0,0,0.7096,0.7098,0.7225,0.7226,0.7228,0.7327,0.7328,0.733,0.7399,0.7399,0.74,0.74,0.7508,0.7511,0.7514,0,0,0,0,0,0,0,0,0,0,0,0,0,0.717,0.7099,0.7225,0.7274,0.7279,0.7327,0.7328,0.733,0.7398,0.7399,0.74,0.7401,0.7507,0.7511,0.7515,0.7523,0,0,0.7526,0.7528,0,0,0,0,0,0,0,0,0.7166,0.7175,0.7265,0.7271,0.7277,0.7351,0.7323,0.7395,0.7398,0.7353,0.74,0.7401,0.7456,0.7464,0.7482,0.7528,0.7533,0.7526,0.7528,0.753,0.7531,0,0,0,0,0,0,0,0.7161,0.7171,0.7266,0.7267,0.7274,0.7293,0.7304,0.7337,0.74,0.7357,0.7363,0.7373,0.746,0.7478,0.7485,0.7534,0.7526,0.7529,0.7532,0.7533,0.7595,0.7595,0,0,0,0,0,0,0.7147,0.7166,0.7262,0.7269,0.7222,0.7294,0.7307,0.7326,0.7399,0.7411,0.7373,0.7376,0.7472,0.7481,0.7489,0.7505,0.753,0.7533,0.7536,0.7596,0.7595,0.7594,0,0,0,0,0,0,0.7144,0.7155,0.7258,0.7219,0.7234,0.7296,0.7317,0.7328,0.7347,0.7411,0.7423,0.738,0.7472,0.7484,0.7514,0.7509,0.7535,0.7539,0.7596,0.7595,0.7595,0.7535,0,0,0,0,0,0,0.714,0.7154,0.7156,0.7219,0.7235,0.728,0.7317,0.733,0.7352,0.7358,0.7421,0.7432,0.7474,0.7508,0.7518,0.7515,0.7541,0.7597,0.7596,0.7595,0.7537,0.7532,0.7527,0,0,0,0,0,0.7135,0.7135,0.7155,0.7167,0.7239,0.7279,0.7289,0.7336,0.7351,0.7355,0.7397,0.743,0.7508,0.7511,0.7522,0.752,0.7598,0.7596,0.7595,0.754,0.7533,0.7527,0,0,0,0,0,0,0.7072,0.7144,0.7168,0.7188,0.7226,0.7291,0.7296,0.7327,0.7363,0.7367,0.7425,0.7439,0.7464,0.7496,0.7497,0.7533,0.7557,0.7558,0.7511,0.7505,0.75,0.7492,0.7544,0,0,0,0,0,0.706,0.7084,0.7148,0.7159,0.7177,0.7233,0.7253,0.7285,0.7329,0.7346,0.739,0.7432,0.7467,0.7488,0.7523,0.7543,0.7559,0.7547,0.7542,0.7538,0.7538,0.7552,0.7548,0.759,0.759,0.759,0,0,0.7036,0.7079,0.7091,0.7148,0.7181,0.7208,0.7247,0.7272,0.7293,0.7351,0.7381,0.7415,0.7467,0.7492,0.7505,0.7519,0.753,0.7536,0.7532,0.7535,0.7551,0.7546,0.7543,0.7589,0.759,0.759,0,0,0.7005,0.7039,0.7053,0.7087,0.7137,0.7175,0.7178,0.7238,0.7263,0.7295,0.7339,0.7365,0.7423,0.7458,0.7483,0.7468,0.75,0.7478,0.7451,0.7465,0.7462,0.7459,0.7454,0.7452,0.7478,0.7478,0.7478,0,0.6969,0.7008,0.7057,0.708,0.7105,0.7157,0.7173,0.7204,0.7264,0.728,0.7295,0.7369,0.7408,0.7442,0.7439,0.7457,0.7465,0.7471,0.7458,0.7456,0.7454,0.745,0.7448,0.7475,0.7476,0.7476,0.7476,0,0.6962,0.6988,0.6994,0.7049,0.7075,0.7094,0.7148,0.7168,0.72,0.7237,0.727,0.7318,0.7364,0.7375,0.7406,0.7415,0.7422,0.7446,0.7471,0.7446,0.7444,0.7442,0.7471,0.7472,0.7473,0.7474,0,0,0.6892,0.6975,0.6976,0.7003,0.7063,0.7086,0.7109,0.7153,0.717,0.7211,0.7232,0.7281,0.7304,0.7333,0.7369,0.7381,0.7367,0.7404,0.7407,0.7396,0.7382,0.7362,0.736,0.7389,0.7389,0.7389,0.7377,0,0.687,0.6912,0.6958,0.6984,0.701,0.7062,0.7082,0.7123,0.7159,0.7188,0.7229,0.7262,0.729,0.7308,0.7322,0.7366,0.7365,0.7367,0.7412,0.7413,0.7396,0.7358,0.7338,0.7324,0.7377,0.7376,0.7376,0,0.685,0.6887,0.6915,0.6975,0.6988,0.7005,0.705,0.7077,0.7125,0.7151,0.7183,0.7222,0.7251,0.7274,0.7316,0.7317,0.7338,0.7363,0.7364,0.7369,0.7392,0.7363,0.7321,0.7318,0.7375,0.7375,0.7375,0,0.6796,0.6854,0.6878,0.6899,0.6969,0.698,0.7011,0.706,0.7084,0.7124,0.7141,0.7185,0.7209,0.7243,0.7293,0.7305,0.7331,0.7357,0.7354,0.7353,0.7357,0.7355,0.7317,0.7371,0.7371,0.7371,0.7371,0,0.6767,0.6783,0.6855,0.687,0.689,0.6944,0.6963,0.6998,0.7042,0.7066,0.7115,0.7137,0.7203,0.7234,0.7274,0.7304,0.7314,0.7337,0.7347,0.7332,0.7329,0.7347,0.7349,0.737,0.737,0.7371,0.7371,0,0.671,0.6759,0.6789,0.6853,0.687,0.6882,0.6938,0.6956,0.6995,0.7026,0.7036,0.7098,0.7138,0.7192,0.7248,0.7275,0.73,0.7316,0.7282,0.7289,0.7282,0.7282,0.7253,0.7253,0.7306,0.7306,0.7305,0,0.6687,0.67,0.6766,0.6785,0.6813,0.6844,0.6868,0.6923,0.6948,0.7005,0.7016,0.7059,0.7096,0.7157,0.7209,0.7253,0.7271,0.7258,0.7278,0.7263,0.7271,0.7269,0.7272,0.7253,0.7252,0.7251,0.725,0,0.6643,0.6667,0.6699,0.6741,0.6769,0.6805,0.6843,0.6857,0.6921,0.6946,0.6986,0.7015,0.7072,0.7115,0.7166,0.72,0.7237,0.7244,0.7246,0.723,0.721,0.7221,0.7269,0.7244,0.7245,0.7245,0.7246,0.7246,0.6603,0.6617,0.6665,0.6701,0.6735,0.6771,0.6791,0.6832,0.6866,0.6916,0.6947,0.6986,0.7038,0.711,0.7142,0.7175,0.719,0.7192,0.7193,0.7192,0.7187,0.7205,0.7185,0.7185,0.7185,0.7186,0.7186,0,0.6561,0.6594,0.6627,0.6678,0.6707,0.6737,0.6782,0.6805,0.6837,0.6881,0.6917,0.6964,0.7006,0.7061,0.7108,0.7124,0.7142,0.7134,0.7134,0.7141,0.7171,0.7165,0.7119,0.7119,0.7119,0.7119,0.7119,0.7119,0.6542,0.6568,0.6598,0.6643,0.6678,0.6714,0.6737,0.6771,0.6806,0.6856,0.6891,0.6926,0.6975,0.7026,0.7067,0.7083,0.7098,0.7085,0.7106,0.7133,0.7139,0.7144,0.7139,0.7088,0.7088,0.7073,0.7073,0.7073]},{"header":{"parameterUnit":"m.s-1","parameterCategory":1,"la1":30.2991,"la2":30.254,"lo1":-89.0895,"lo2":-89.0444,"dy":0.0017,"dx":0.0017,"nx":28,"ny":28,"refTime":"2025-11-22T09:00:00:Z","depth":0,"parameterNumber":3,"parameterNumberName":"V-component_of_WINDS"},"data":[0,0,0,0,0,0,0,0,0,0,0,0,0,0,0,0,0,0,0,0,0,0,0,0,0,0,0,0,0,0,0,0,0,0,0,0,0,0,0,0,0,0,0,0,0,0,0,0,0,0,0,0,0,0,0,0,0,0,-1.5165,-1.5166,0,-1.5208,-1.5209,-1.5209,-1.5285,-1.5286,-1.5288,-1.5289,-1.5326,-1.5325,-1.5325,0,0,0,0,0,0,0,0,0,0,0,0,0,-1.5143,-1.5143,-1.5165,-1.5166,-1.5166,-1.5208,-1.5209,-1.5209,-1.5285,-1.5287,-1.5288,-1.529,-1.5326,-1.5325,-1.5325,0,0,0,0,0,0,0,0,0,0,0,0,0,-1.5166,-1.5143,-1.5165,-1.5209,-1.5214,-1.5208,-1.5209,-1.521,-1.5284,-1.5287,-1.5289,-1.5291,-1.5326,-1.5325,-1.5325,-1.5278,0,0,-1.5323,-1.5323,0,0,0,0,0,0,0,0,-1.5165,-1.5167,-1.5202,-1.5206,-1.5211,-1.5244,-1.5215,-1.5232,-1.5284,-1.5257,-1.5289,-1.5292,-1.5296,-1.5298,-1.5301,-1.5279,-1.5281,-1.5323,-1.5323,-1.5322,-1.5322,0,0,0,0,0,0,0,-1.5163,-1.5165,-1.5182,-1.5203,-1.5208,-1.5225,-1.5231,-1.5218,-1.5264,-1.526,-1.5265,-1.527,-1.5299,-1.5302,-1.5303,-1.5281,-1.5323,-1.5322,-1.5322,-1.5322,-1.5227,-1.5224,0,0,0,0,0,0,-1.5156,-1.5163,-1.5181,-1.5183,-1.5193,-1.5224,-1.523,-1.5231,-1.5264,-1.5271,-1.5268,-1.5273,-1.5301,-1.5303,-1.5304,-1.5254,-1.5322,-1.5322,-1.5322,-1.5229,-1.5226,-1.5224,0,0,0,0,0,0,-1.5155,-1.5157,-1.5179,-1.5175,-1.5179,-1.5222,-1.5222,-1.5231,-1.5234,-1.527,-1.5278,-1.5263,-1.5303,-1.5305,-1.5285,-1.5256,-1.5322,-1.5321,-1.5231,-1.5228,-1.5225,-1.5151,0,0,0,0,0,0,-1.5154,-1.5156,-1.5139,-1.5174,-1.5179,-1.516,-1.522,-1.523,-1.5233,-1.5241,-1.5268,-1.5274,-1.5305,-1.5286,-1.5284,-1.5256,-1.5321,-1.5234,-1.523,-1.5226,-1.5156,-1.5146,-1.5137,0,0,0,0,0,-1.5153,-1.5114,-1.5138,-1.514,-1.516,-1.5159,-1.5161,-1.52,-1.523,-1.5214,-1.5238,-1.5273,-1.5259,-1.5283,-1.5282,-1.5254,-1.5236,-1.5231,-1.5226,-1.5161,-1.5148,-1.5137,0,0,0,0,0,0,-1.5071,-1.512,-1.5146,-1.5118,-1.5134,-1.5171,-1.5152,-1.5185,-1.519,-1.5196,-1.5242,-1.5247,-1.5222,-1.5235,-1.5261,-1.5211,-1.5253,-1.5248,-1.5204,-1.5192,-1.5182,-1.518,-1.532,0,0,0,0,0,-1.5051,-1.5048,-1.5089,-1.506,-1.5067,-1.5108,-1.5109,-1.5138,-1.5155,-1.5161,-1.5184,-1.5197,-1.5197,-1.5195,-1.5195,-1.5158,-1.5166,-1.5139,-1.5129,-1.512,-1.5116,-1.51,-1.5089,-1.5207,-1.5208,-1.5208,0,0,-1.5007,-1.5033,-1.5027,-1.5045,-1.506,-1.5055,-1.5113,-1.5104,-1.5101,-1.5159,-1.5143,-1.516,-1.5178,-1.5151,-1.5139,-1.5161,-1.5085,-1.5114,-1.5107,-1.5107,-1.5094,-1.5082,-1.5072,-1.5204,-1.5205,-1.5205,0,0,-1.4925,-1.4944,-1.4924,-1.4939,-1.4964,-1.4992,-1.4987,-1.502,-1.5035,-1.502,-1.5065,-1.506,-1.5057,-1.5069,-1.5075,-1.5001,-1.5034,-1.4999,-1.4948,-1.4932,-1.4923,-1.4915,-1.4891,-1.4881,-1.4994,-1.4994,-1.4994,0,-1.4866,-1.4863,-1.4908,-1.4898,-1.4905,-1.4961,-1.4941,-1.4953,-1.4975,-1.4978,-1.5003,-1.5003,-1.5018,-1.4996,-1.4978,-1.498,-1.4976,-1.4997,-1.4921,-1.4913,-1.4906,-1.4884,-1.4874,-1.499,-1.499,-1.4991,-1.4991,0,-1.4791,-1.4788,-1.4768,-1.4793,-1.4797,-1.4781,-1.4824,-1.4822,-1.4851,-1.4876,-1.4862,-1.4883,-1.4891,-1.4887,-1.4914,-1.4869,-1.4882,-1.4913,-1.4956,-1.489,-1.487,-1.4861,-1.4984,-1.4986,-1.4987,-1.4988,0,0,-1.4657,-1.471,-1.4702,-1.4716,-1.4748,-1.4746,-1.4733,-1.4744,-1.4743,-1.4756,-1.4748,-1.4745,-1.4776,-1.4782,-1.481,-1.4796,-1.4739,-1.4829,-1.483,-1.4813,-1.4694,-1.4672,-1.4661,-1.4761,-1.476,-1.4759,-1.4693,0,-1.4584,-1.4568,-1.461,-1.4583,-1.4582,-1.4636,-1.4626,-1.4644,-1.4667,-1.4668,-1.4693,-1.4692,-1.473,-1.4735,-1.4724,-1.4749,-1.4716,-1.4754,-1.4753,-1.4753,-1.4749,-1.465,-1.4626,-1.4563,-1.4685,-1.4684,-1.4683,0,-1.4495,-1.4509,-1.4483,-1.4521,-1.4522,-1.4512,-1.4527,-1.4527,-1.4549,-1.4567,-1.4576,-1.4611,-1.4601,-1.4642,-1.4629,-1.4654,-1.4656,-1.4668,-1.4667,-1.4669,-1.4714,-1.4651,-1.4543,-1.4534,-1.467,-1.4671,-1.4672,0,-1.4403,-1.4415,-1.4402,-1.4411,-1.4454,-1.4446,-1.4463,-1.4488,-1.4492,-1.4505,-1.4509,-1.4518,-1.4523,-1.4529,-1.4565,-1.4592,-1.4548,-1.4592,-1.4563,-1.4562,-1.4552,-1.4552,-1.4445,-1.455,-1.4551,-1.4551,-1.4551,0,-1.4318,-1.43,-1.4362,-1.4354,-1.4337,-1.4385,-1.4365,-1.4387,-1.4409,-1.4406,-1.4452,-1.4447,-1.4495,-1.4496,-1.4523,-1.451,-1.4511,-1.4525,-1.4533,-1.4522,-1.452,-1.4525,-1.453,-1.4548,-1.4549,-1.4549,-1.455,0,-1.4212,-1.4253,-1.4243,-1.4286,-1.4296,-1.4281,-1.4317,-1.4311,-1.4339,-1.4334,-1.4336,-1.4378,-1.4381,-1.4419,-1.4428,-1.4448,-1.4423,-1.4438,-1.4417,-1.4422,-1.4392,-1.4395,-1.4285,-1.4273,-1.4384,-1.4383,-1.4382,0,-1.4155,-1.4144,-1.4187,-1.419,-1.4206,-1.4209,-1.4216,-1.4262,-1.4267,-1.4293,-1.4284,-1.4292,-1.4301,-1.4303,-1.4334,-1.4342,-1.4359,-1.432,-1.4361,-1.4351,-1.4361,-1.4362,-1.4362,-1.4311,-1.431,-1.4309,-1.4308,0,-1.4051,-1.4073,-1.4082,-1.4099,-1.4107,-1.4121,-1.4139,-1.4138,-1.4189,-1.4192,-1.4198,-1.4205,-1.4218,-1.4225,-1.424,-1.4256,-1.429,-1.4295,-1.4289,-1.4278,-1.4268,-1.4275,-1.4395,-1.4297,-1.4298,-1.4299,-1.43,-1.43,-1.397,-1.3964,-1.3995,-1.4004,-1.4023,-1.4038,-1.4036,-1.4065,-1.4072,-1.4089,-1.4115,-1.4117,-1.4141,-1.4166,-1.4179,-1.4181,-1.4201,-1.4191,-1.419,-1.4187,-1.4182,-1.4266,-1.4183,-1.4183,-1.4184,-1.4184,-1.4184,0,-1.3871,-1.3894,-1.3902,-1.3927,-1.3934,-1.3969,-1.3991,-1.3994,-1.3997,-1.4018,-1.4027,-1.4035,-1.4044,-1.4076,-1.4087,-1.4083,-1.4099,-1.4084,-1.4086,-1.4089,-1.4162,-1.4167,-1.4071,-1.4071,-1.4071,-1.4071,-1.4071,-1.4071,-1.382,-1.3812,-1.3838,-1.384,-1.3863,-1.3869,-1.3878,-1.3893,-1.3911,-1.3919,-1.3927,-1.3949,-1.3975,-1.3989,-1.3999,-1.4008,-1.401,-1.3991,-1.4005,-1.4073,-1.4084,-1.4094,-1.4099,-1.3991,-1.399,-1.3933,-1.3932,-1.3932]}]]